Wind_Speed
15 9 6 7 9 11 13 15 16 17 16 19 18 17 17 18 18 17 16 15 15 15 15 16 16 15 15 15 15 15 17 16 16 15 16 15 15 14 14 13 13 14 13
13 11 9 9 9 11 13 14 16 16 16 18 17 18 16 16 16 17 16 14 15 15 15 14 16 16 15 15 15 16 17 18 17 15 14 14 14 13 13 12 13 12 11
14 11 11 11 11 12 13 13 16 16 16 17 17 15 15 15 14 14 15 13 13 14 13 14 14 15 14 14 15 15 15 15 14 14 16 15 13 13 12 12 11 11 10
17 14 12 10 11 12 12 14 15 15 17 15 15 14 14 14 13 13 13 12 11 11 13 13 12 12 12 10 9 11 12 14 13 14 14 12 11 11 11 10 11 9 8
18 16 14 11 11 11 12 13 14 16 15 16 14 14 14 13 12 12 12 12 11 11 11 11 10 11 10 10 9 12 10 9 11 11 12 11 11 10 10 9 8 7 7
20 16 14 11 11 11 11 12 13 15 14 14 14 13 12 11 11 11 11 10 10 9 9 9 10 9 9 10 12 12 10 9 8 10 10 11 10 8 7 6 5 6 5
21 17 15 13 11 12 12 13 14 14 14 14 13 13 12 11 10 9 8 7 7 7 7 8 9 9 10 9 9 9 6 6 7 8 8 8 8 6 5 5 4 3 2
22 18 15 14 11 12 12 13 14 15 15 14 12 12 11 11 10 10 8 7 7 6 5 6 8 9 9 9 9 7 7 5 7 7 6 6 7 6 5 3 4 3 2
20 18 15 14 12 12 12 13 13 13 14 13 12 11 10 10 10 9 8 7 6 6 6 5 7 8 7 8 7 4 3 4 3 3 4 4 3 1 2 3 3 2 2
19 18 16 16 14 14 13 13 12 12 13 13 11 9 10 9 9 8 9 6 6 7 8 7 7 8 6 6 5 4 1 2 2 0 2 2 2 2 2 2 2 3 3
18 18 16 16 15 14 14 13 12 12 12 11 10 9 10 10 8 7 8 6 7 8 8 7 5 4 3 4 2 1 0 5 5 3 1 2 2 2 2 2 3 4 5
19 19 17 16 15 15 15 15 14 14 13 13 11 10 8 8 7 7 7 7 6 5 4 3 2 1 1 2 3 5 7 9 7 4 1 1 1 2 2 3 4 4 5
22 20 18 17 16 16 15 16 15 14 13 13 12 8 7 6 6 4 4 3 3 4 5 4 3 6 7 7 6 6 8 5 5 4 2 1 1 2 2 1 2 4 6
23 19 18 17 17 16 17 17 16 14 13 12 10 9 6 5 5 3 0 2 7 6 6 5 2 5 7 8 8 4 4 3 3 3 3 3 3 2 1 1 3 6 7
23 20 19 17 16 17 17 15 14 11 10 10 9 7 8 4 3 1 4 3 6 7 8 7 7 8 7 8 4 7 9 6 3 3 5 4 3 2 1 3 5 7 8
22 23 20 18 16 17 15 14 13 10 11 11 9 9 6 2 3 3 5 6 6 9 9 7 8 7 7 7 3 3 6 3 2 3 5 4 2 1 2 5 7 8 10
24 24 22 18 17 16 14 14 12 11 14 13 9 8 5 4 3 4 8 7 7 7 5 8 8 5 4 1 3 2 4 4 3 3 2 2 3 2 3 5 7 9 9
26 26 23 20 18 19 19 13 12 12 12 14 10 8 7 5 5 7 6 7 6 9 8 8 8 1 2 3 3 3 3 4 3 2 2 3 3 5 6 7 9 10 9
28 27 25 19 17 15 18 16 12 13 10 14 9 10 8 5 7 7 5 4 6 8 10 9 9 3 8 4 4 3 6 5 5 6 7 8 8 10 9 10 10 11 8
30 27 23 21 19 18 16 17 11 13 12 12 10 9 8 5 3 4 4 3 5 8 9 10 9 6 3 6 8 9 10 6 4 5 5 6 7 7 8 8 7 7 5
31 28 26 24 21 19 17 16 13 14 10 11 8 7 7 7 3 2 6 6 6 7 9 11 9 8 10 5 0 2 2 3 5 5 4 4 5 4 6 7 7 4 3
34 30 30 26 23 20 16 16 15 14 13 13 9 9 8 6 4 2 4 5 5 6 7 9 11 11 11 7 3 4 2 4 8 7 7 6 5 3 4 1 3 4 5
31 33 31 26 26 23 15 15 16 14 11 15 10 10 8 7 5 3 2 3 4 4 6 8 10 11 6 11 8 3 2 2 1 2 6 7 3 2 2 3 4 5 5
33 32 29 29 27 23 19 16 17 16 17 15 12 9 7 6 6 4 3 1 3 3 5 5 6 9 7 6 8 6 3 3 2 2 7 4 4 4 5 6 9 10 9
30 34 30 28 26 22 20 17 16 16 16 14 13 10 8 8 8 7 6 5 2 2 4 4 4 6 7 9 5 2 2 2 3 3 2 5 11 12 7 11 13 12 12
29 29 32 30 27 24 20 17 16 17 17 15 13 12 11 11 9 6 11 8 6 4 3 4 3 3 4 5 4 3 2 1 1 1 1 3 5 4 8 10 10 16 15
Wind_Direction
198 173 149 126 120 113 107 100 101 102 104 108 105 103 111 111 112 113 113 112 108 109 106 103 104 105 104 101 100 104 105 107 103 104 107 102 98 99 102 105 108 105 101
163 163 142 122 113 104 104 102 105 102 105 108 115 116 116 112 117 117 118 113 112 109 102 102 101 106 101 101 101 100 96 99 100 100 104 104 99 103 103 100 99 96 98
163 160 142 130 123 116 111 112 108 107 112 117 118 116 114 117 117 114 115 111 104 102 105 107 107 103 104 100 96 92 97 100 100 99 103 103 99 96 97 99 100 100 104
163 161 145 139 126 118 117 115 113 111 117 118 116 116 119 119 118 117 109 107 106 102 106 111 108 102 98 92 102 110 99 98 101 106 103 100 98 100 99 93 97 101 101
165 161 148 148 134 128 121 121 120 123 124 120 120 118 120 117 118 117 112 108 105 104 112 115 111 102 92 83 83 121 115 117 107 113 110 108 111 104 98 96 93 95 97
164 162 152 147 144 137 127 127 127 125 124 124 120 122 120 119 115 118 111 112 107 109 116 123 116 103 91 83 83 116 116 122 111 118 114 112 106 101 104 99 99 101 106
162 161 157 153 150 140 141 136 133 129 132 129 129 127 126 124 129 128 120 108 104 108 106 123 122 112 89 89 99 95 103 120 124 124 111 105 96 94 93 90 89 91 90
157 157 159 152 144 142 140 135 137 140 141 134 130 127 127 125 115 113 106 97 89 87 89 118 129 109 95 91 106 86 75 107 129 120 120 105 118 94 85 80 80 69 52
158 155 152 148 145 146 144 142 146 143 137 139 141 137 131 125 112 106 103 102 99 93 85 107 136 124 105 93 108 95 62 77 123 127 123 126 131 110 78 77 72 57 32
163 160 151 154 153 151 147 144 142 142 146 145 140 136 123 120 114 112 108 87 85 84 85 99 136 134 111 103 109 86 168 4 22 59 123 133 118 100 80 65 50 24 3
163 164 162 163 155 152 148 144 142 142 144 145 147 133 132 135 129 114 102 86 72 77 75 79 101 139 135 132 105 56 275 277 299 317 131 121 110 89 69 43 27 13 356
170 169 170 161 154 150 150 153 141 147 150 158 153 149 145 133 125 120 101 86 75 71 64 65 44 36 275 307 315 316 312 283 274 288 176 134 106 90 48 27 16 358 354
166 169 170 162 160 153 154 151 150 143 148 153 149 151 145 149 136 129 121 96 40 0 349 337 295 281 290 303 312 320 322 312 247 254 179 129 90 106 82 49 4 353 352
168 167 166 164 161 159 155 154 153 151 156 160 155 163 177 161 143 128 227 314 350 351 348 8 348 328 322 308 287 271 311 253 279 232 167 165 174 126 100 29 0 360 354
171 169 164 160 158 159 161 159 158 153 162 167 163 167 173 172 211 34 31 350 0 9 5 348 335 337 350 340 285 249 253 260 289 176 170 167 152 145 61 23 12 2 356
178 171 168 170 168 168 171 172 170 161 165 161 159 164 181 177 183 31 41 37 40 8 1 5 347 343 335 341 193 121 90 179 167 158 167 163 143 75 33 24 17 7 3
181 176 179 184 184 191 170 177 178 162 167 159 150 154 138 128 82 51 38 33 47 22 4 346 330 327 329 342 179 161 136 147 103 67 82 94 77 43 21 2 350 352 353
182 180 180 186 198 204 198 191 190 169 180 178 159 142 131 107 90 72 60 55 65 13 19 25 23 254 107 175 176 247 218 222 210 216 282 308 327 329 335 331 334 330 332
182 174 170 182 170 162 169 182 175 177 169 161 162 156 133 112 84 69 83 74 22 52 35 39 33 106 202 204 264 282 245 247 257 292 303 290 299 299 312 311 323 326 319
185 178 170 167 160 159 165 179 183 185 175 171 169 170 159 144 104 101 143 97 83 53 48 42 52 91 127 248 254 247 245 278 309 297 321 291 304 305 322 332 353 354 348
188 182 176 172 165 163 163 170 184 185 184 196 186 175 159 161 135 71 95 123 87 68 61 39 65 74 61 38 358 172 95 269 291 260 299 298 309 313 326 316 337 2 34
188 187 184 179 177 178 182 183 187 190 204 199 198 190 175 177 163 151 93 124 91 81 77 49 48 56 51 56 77 93 69 55 71 121 117 89 87 68 24 37 32 33 62
192 188 182 180 179 180 183 181 175 182 195 182 189 195 195 188 167 170 143 104 89 95 83 60 50 61 97 63 70 97 104 204 247 95 105 105 94 92 102 85 94 39 11
194 188 183 179 176 182 181 176 187 187 173 187 193 196 195 197 191 180 199 188 129 90 109 86 57 63 67 99 78 68 90 145 143 314 254 275 279 298 298 293 310 327 331
190 189 185 186 183 188 186 188 186 187 191 194 202 207 204 200 212 207 199 211 222 158 155 138 95 81 79 83 75 115 85 47 84 184 272 290 285 296 311 314 332 341 9
191 190 193 190 186 185 184 185 191 193 195 198 201 209 215 207 215 218 209 212 225 232 202 192 164 122 111 97 66 48 115 189 261 181 117 281 286 302 330 14 17 16 29
Height
812 814 815 818 816 816 816 816 816 819 820 820 822 823 824 824 825 826 826 826 827 826 827 828 828 828 828 828 828 828 828 829 829 829 829 830 831 832 832 834 833 834 834
812 815 816 819 819 818 818 819 820 822 822 822 824 825 827 827 828 828 829 829 829 829 829 830 831 831 832 832 831 832 831 830 831 833 832 833 834 834 835 835 835 836 836
814 816 818 820 820 820 821 821 822 823 823 825 826 828 829 830 831 832 832 832 832 832 833 833 834 834 835 835 834 834 835 835 836 836 836 836 836 837 838 838 838 839 840
816 818 820 821 823 823 823 823 823 824 826 828 829 831 832 833 834 834 834 835 836 836 836 836 837 838 837 837 837 837 838 839 839 839 840 840 841 842 842 841 842 842 843
817 820 821 823 824 825 825 826 827 827 829 830 832 834 834 836 836 837 837 838 839 839 840 840 841 840 839 839 839 840 840 842 842 843 844 844 845 845 845 845 845 845 845
820 822 823 824 825 827 828 829 829 830 832 833 835 836 837 837 838 840 839 840 840 841 841 842 843 843 843 843 842 843 844 844 845 846 847 847 847 847 848 847 846 846 847
822 825 826 827 828 830 831 831 832 833 835 836 837 838 838 839 840 840 841 843 844 845 845 845 846 846 846 846 846 846 847 848 848 849 849 849 849 849 849 848 848 848 848
824 826 828 830 831 832 833 834 835 836 837 839 840 840 840 841 842 842 843 844 846 847 848 848 849 849 849 849 850 849 850 851 851 851 851 851 851 852 851 850 850 850 850
827 828 830 831 832 833 834 836 836 837 839 840 841 841 842 843 844 845 846 846 847 848 849 850 850 852 852 852 852 853 853 853 853 853 853 853 853 853 853 852 852 852 851
828 830 831 832 833 834 836 837 838 839 840 842 842 844 845 846 846 847 848 849 849 850 851 852 852 853 854 854 854 855 855 855 855 855 855 855 855 854 854 854 854 853 852
830 830 832 833 835 836 838 840 841 841 843 844 846 847 848 849 850 850 850 850 851 851 853 853 854 854 855 856 856 857 857 857 857 857 856 857 856 856 855 855 854 854 853
829 831 833 835 836 837 839 841 842 842 844 846 848 850 851 852 852 851 852 851 852 853 854 855 854 857 857 858 858 857 857 857 857 857 857 857 857 857 856 856 855 855 854
828 832 833 836 837 839 841 842 844 844 848 849 851 853 853 853 853 854 854 854 854 854 855 855 855 856 857 857 857 857 856 856 857 857 857 858 858 857 856 855 855 855 854
829 832 835 837 839 840 843 845 846 848 850 851 852 853 853 854 854 855 855 855 856 856 856 856 856 857 856 856 856 856 856 856 857 857 857 856 855 856 855 856 856 855 854
830 833 836 838 840 842 844 846 848 849 851 852 853 854 855 855 855 855 856 856 856 857 857 857 856 856 856 856 856 855 855 856 857 855 854 854 856 855 857 857 857 856 854
831 834 837 839 841 843 845 847 848 850 851 853 854 855 856 856 855 856 856 857 857 857 857 856 856 855 855 855 855 854 855 856 856 855 855 856 857 858 859 858 858 856 855
831 834 836 839 841 843 846 847 849 850 851 853 854 856 856 857 856 857 857 857 859 858 858 857 855 855 855 855 855 855 856 856 858 859 858 858 860 858 858 857 857 856 854
830 833 836 838 840 842 846 848 848 850 851 853 854 855 856 857 856 857 858 859 859 859 857 856 855 854 855 856 855 856 858 858 859 859 859 859 859 859 858 856 856 854 852
829 832 836 838 840 841 844 848 850 851 852 853 855 856 857 857 857 858 859 860 859 859 858 856 855 853 855 856 857 857 858 858 860 861 861 859 859 857 857 855 854 853 851
829 832 836 838 840 842 845 848 850 851 853 855 856 857 858 858 857 860 860 860 860 860 859 857 856 854 855 855 855 855 858 860 860 860 859 858 857 856 856 855 853 852 851
829 832 834 837 839 842 845 847 849 850 853 855 856 858 859 859 860 859 859 860 861 861 860 860 859 857 855 855 856 856 859 859 859 858 858 856 856 856 855 854 853 850 849
825 829 833 835 838 842 844 846 849 851 853 855 856 858 859 859 860 861 861 861 861 861 860 860 859 857 856 855 856 857 863 863 860 858 857 857 857 856 855 853 853 851 849
825 827 830 833 836 840 844 846 849 851 852 855 857 858 860 860 860 861 861 862 862 862 861 861 861 859 858 857 857 858 863 865 863 861 858 858 857 856 855 853 851 852 849
822 826 829 833 835 838 842 845 847 850 852 854 856 858 860 861 861 861 861 861 862 862 862 862 863 862 860 859 859 859 860 860 864 865 859 859 856 855 855 853 852 850 848
821 824 828 832 835 838 840 844 846 848 851 853 855 857 858 860 861 861 861 862 862 863 862 862 863 863 862 861 860 860 860 859 861 862 862 857 855 854 852 850 849 848 845
820 825 827 830 834 836 839 842 844 846 849 851 853 854 856 858 859 861 861 862 862 862 863 863 863 863 862 862 861 860 860 859 859 860 860 859 857 853 851 849 848 845 844